{"data":{"norad_id":59069,"epoch":"2026-09-19T06:52:03.390240Z","epoch_age_seconds":126899,"freshness":"FRESH","line1":"1 59069U 24040A   26262.28615035  .00000152  00000+0  00000+0 0  9993","line2":"2 59069   0.0923 338.6658 0001846  51.7380 104.4501  1.00270690  8274","mean_motion":1.0027069,"eccentricity":0.0001846,"inclination_deg":0.0923,"raan_deg":338.6658,"arg_perigee_deg":51.738,"mean_anomaly_deg":104.4501,"bstar":0,"rev_number":827,"period_min":1436.1125868387,"perigee_km":35779.118266047,"apogee_km":35794.685598421,"semimajor_km":42165.038932234,"source":"CELESTRAK","updated_at":"2026-09-20T09:00:35.336756Z"}}